Location: Lafig�re
(44.4503°N, 4.0357°E)
Time: 22:06:02
(UTC+00:00)

Cosmos 1092 Rocket - Pass Details

Date: 30 January 2021
Orbit: 954 x 995 km, 83.0° (Epoch: 07 March)

Event Time Altitude Azimuth Distance (km) Brightness Sun altitude
Rises 05:45:56 0° 342° (NNW) 3,648 6.7 -14.2°
Reaches altitude 10° 05:48:42 10° 333° (NNW) 2,701 6.0 -13.7°
Maximum altitude 05:53:57 30° 274° (W) 1,647 4.7 -12.8°
Drops below altitude 10° 05:59:13 10° 215° (SW) 2,705 6.1 -11.9°
Sets 06:02:01 0° 205° (SSW) 3,654 6.9 -11.4°
